| time (UTC) | temp F | wind direction | speed MPH | gust MPH | rain 1hr in | rain 24hr in | rain mn in | humidity % | barometer mb |
| 20260510192504 | 63 | 89 | 4.0 | 10.0 | 0.00 | 0.00 | 0.00 | 39 | 1024.9 |
| 20260510192003 | 65 | 113 | 2.0 | 10.0 | 0.00 | 0.00 | 0.00 | 38 | 1024.6 |
| 20260510191512 | 66 | 153 | 4.0 | 13.0 | 0.00 | 0.00 | 0.00 | 37 | 1024.5 |
| 20260510191004 | 67 | 224 | 2.0 | 13.0 | 0.00 | 0.00 | 0.00 | 37 | 1024.6 |
| 20260510190505 | 65 | 87 | 3.0 | 16.0 | 0.00 | 0.00 | 0.00 | 39 | 1024.4 |
| 20260510190020 | 66 | 49 | 6.0 | 16.0 | 0.00 | 0.00 | 0.00 | 38 | 1024.5 |
| 20260510185509 | 68 | 80 | 5.0 | 11.0 | 0.00 | 0.00 | 0.00 | 35 | 1024.4 |
| 20260510185009 | 70 | 79 | 3.0 | 11.0 | 0.00 | 0.00 | 0.00 | 32 | 1024.5 |
| 20260510184528 | 71 | 167 | 2.0 | 7.0 | 0.00 | 0.00 | 0.00 | 31 | 1024.3 |
| 20260510184009 | 72 | 52 | 3.0 | 7.0 | 0.00 | 0.00 | 0.00 | 30 | 1024.3 |
| 20260510183512 | 71 | 123 | 3.0 | 6.0 | 0.00 | 0.00 | 0.00 | 31 | 1024.1 |
| 20260510183026 | 71 | 105 | 3.0 | 9.0 | 0.00 | 0.00 | 0.00 | 31 | 1024.1 |
| 20260510182509 | 70 | 94 | 3.0 | 9.0 | 0.00 | 0.00 | 0.00 | 31 | 1024.3 |
| 20260510182017 | 70 | 174 | 4.0 | 11.0 | 0.00 | 0.00 | 0.00 | 32 | 1024.3 |
| 20260510181508 | 70 | 149 | 5.0 | 11.0 | 0.00 | 0.00 | 0.00 | 32 | 1024.3 |
| 20260510181004 | 70 | 101 | 3.0 | 8.0 | 0.00 | 0.00 | 0.00 | 30 | 1024.3 |
| 20260510180502 | 70 | 91 | 3.0 | 8.0 | 0.00 | 0.00 | 0.00 | 30 | 1024.3 |
| 20260510180018 | 70 | 266 | 3.0 | 9.0 | 0.00 | 0.00 | 0.00 | 31 | 1024.2 |
| 20260510175506 | 70 | 244 | 3.0 | 9.0 | 0.00 | 0.00 | 0.00 | 29 | 1024.3 |
| 20260510175004 | 69 | 100 | 2.0 | 9.0 | 0.00 | 0.00 | 0.00 | 31 | 1024.2 |
| 20260510174528 | 70 | 150 | 2.0 | 7.0 | 0.00 | 0.00 | 0.00 | 29 | 1024.5 |
| 20260510174006 | 69 | 85 | 2.0 | 8.0 | 0.00 | 0.00 | 0.00 | 30 | 1024.4 |
| 20260510173507 | 69 | 175 | 3.0 | 8.0 | 0.00 | 0.00 | 0.00 | 30 | 1024.6 |
| 20260510173025 | 69 | 155 | 3.0 | 6.0 | 0.00 | 0.00 | 0.00 | 31 | 1024.5 |
| 20260510172509 | 68 | 212 | 2.0 | 9.0 | 0.00 | 0.00 | 0.00 | 31 | 1024.6 |
| 20260510172012 | 68 | 72 | 4.0 | 11.0 | 0.00 | 0.00 | 0.00 | 32 | 1024.6 |
| 20260510171525 | 69 | 167 | 3.0 | 11.0 | 0.00 | 0.00 | 0.00 | 32 | 1024.6 |
| 20260510171009 | 69 | 160 | 2.0 | 5.0 | 0.00 | 0.00 | 0.00 | 30 | 1024.5 |
| 20260510170511 | 68 | 141 | 2.0 | 6.0 | 0.00 | 0.00 | 0.00 | 31 | 1024.5 |
| 20260510170010 | 68 | 128 | 1.0 | 7.0 | 0.00 | 0.00 | 0.00 | 32 | 1024.4 |
| 20260510165503 | 67 | 271 | 2.0 | 7.0 | 0.00 | 0.00 | 0.00 | 33 | 1024.4 |
| 20260510165003 | 67 | 201 | 2.0 | 7.0 | 0.00 | 0.00 | 0.00 | 34 | 1024.4 |
| 20260510164514 | 67 | 153 | 2.0 | 9.0 | 0.00 | 0.00 | 0.00 | 34 | 1024.4 |
| 20260510164004 | 66 | 252 | 2.0 | 9.0 | 0.00 | 0.00 | 0.00 | 35 | 1024.4 |
| 20260510163508 | 66 | 210 | 2.0 | 8.0 | 0.00 | 0.00 | 0.00 | 35 | 1024.3 |
| 20260510163020 | 66 | 88 | 1.0 | 9.0 | 0.00 | 0.00 | 0.00 | 35 | 1024.3 |
| 20260510162508 | 66 | 188 | 3.0 | 9.0 | 0.00 | 0.00 | 0.00 | 36 | 1024.3 |
| 20260510162007 | 66 | 75 | 2.0 | 8.0 | 0.00 | 0.00 | 0.00 | 36 | 1024.4 |
| 20260510161524 | 66 | 119 | 1.0 | 5.0 | 0.00 | 0.00 | 0.00 | 36 | 1024.3 |
| 20260510161009 | 65 | 151 | 2.0 | 5.0 | 0.00 | 0.00 | 0.00 | 35 | 1024.3 |
| 20260510160511 | 65 | 87 | 2.0 | 4.0 | 0.00 | 0.00 | 0.00 | 36 | 1024.3 |
| 20260510160026 | 64 | 124 | 2.0 | 7.0 | 0.00 | 0.00 | 0.00 | 36 | 1024.4 |
| 20260510155508 | 64 | 101 | 1.0 | 7.0 | 0.00 | 0.00 | 0.00 | 37 | 1024.2 |
| 20260510155011 | 63 | 169 | 2.0 | 6.0 | 0.00 | 0.00 | 0.00 | 38 | 1024.2 |
| 20260510154533 | 64 | 136 | 2.0 | 6.0 | 0.00 | 0.00 | 0.00 | 38 | 1024.2 |
| 20260510154002 | 63 | 46 | 2.0 | 6.0 | 0.00 | 0.00 | 0.00 | 40 | 1024.2 |
| 20260510153507 | 63 | 228 | 3.0 | 7.0 | 0.00 | 0.00 | 0.00 | 40 | 1024.3 |
| 20260510153020 | 62 | 155 | 2.0 | 9.0 | 0.00 | 0.00 | 0.00 | 40 | 1024.3 |
| 20260510152508 | 62 | 122 | 5.0 | 9.0 | 0.00 | 0.00 | 0.00 | 39 | 1024.1 |
| 20260510152009 | 62 | 151 | 2.0 | 6.0 | 0.00 | 0.00 | 0.00 | 40 | 1024.2 |
| 20260510151520 | 62 | 180 | 2.0 | 8.0 | 0.00 | 0.00 | 0.00 | 39 | 1024.0 |
| 20260510151010 | 63 | 213 | 2.0 | 8.0 | 0.00 | 0.00 | 0.00 | 38 | 1024.0 |
| 20260510150509 | 63 | 127 | 2.0 | 7.0 | 0.00 | 0.00 | 0.00 | 36 | 1023.9 |
| 20260510150027 | 62 | 178 | 2.0 | 6.0 | 0.00 | 0.00 | 0.00 | 36 | 1023.8 |
| 20260510145511 | 62 | 75 | 1.0 | 4.0 | 0.00 | 0.00 | 0.00 | 35 | 1023.8 |
| 20260510145012 | 62 | 67 | 1.0 | 3.0 | 0.00 | 0.00 | 0.00 | 34 | 1023.7 |
| 20260510144527 | 61 | 151 | 0.0 | 2.0 | 0.00 | 0.00 | 0.00 | 35 | 1023.8 |
| 20260510144012 | 61 | 65 | 1.0 | 2.0 | 0.00 | 0.00 | 0.00 | 36 | 1023.7 |
| 20260510143511 | 60 | 78 | 1.0 | 2.0 | 0.00 | 0.00 | 0.00 | 37 | 1023.8 |
| 20260510143033 | 58 | 235 | 0.0 | 2.0 | 0.00 | 0.00 | 0.00 | 38 | 1023.8 |
| 20260510142503 | 57 | 299 | 0.0 | 2.0 | 0.00 | 0.00 | 0.00 | 39 | 1024.0 |
| 20260510142009 | 56 | 79 | 0.0 | 2.0 | 0.00 | 0.00 | 0.00 | 41 | 1023.8 |
| 20260510141520 | 55 | 352 | 0.0 | 2.0 | 0.00 | 0.00 | 0.00 | 42 | 1023.8 |
| 20260510141012 | 55 | 79 | 0.0 | 2.0 | 0.00 | 0.00 | 0.00 | 43 | 1023.8 |
| 20260510140507 | 54 | 70 | 0.0 | 1.0 | 0.00 | 0.00 | 0.00 | 43 | 1023.7 |
| 20260510140025 | 54 | 334 | 0.0 | 1.0 | 0.00 | 0.00 | 0.00 | 43 | 1023.6 |
| 20260510135507 | 53 | 328 | 0.0 | 1.0 | 0.00 | 0.00 | 0.00 | 44 | 1023.6 |
| 20260510135013 | 52 | 326 | 0.0 | 0.0 | 0.00 | 0.00 | 0.00 | 47 | 1023.5 |
| 20260510134528 | 51 | 326 | 0.0 | 0.0 | 0.00 | 0.00 | 0.00 | 48 | 1023.5 |
| 20260510134002 | 51 | 326 | 0.0 | 0.0 | 0.00 | 0.00 | 0.00 | 48 | 1023.4 |
| 20260510133501 | 51 | 326 | 0.0 | 0.0 | 0.00 | 0.00 | 0.00 | 47 | 1023.3 |
| 20260510133005 | 51 | 326 | 0.0 | 1.0 | 0.00 | 0.00 | 0.00 | 47 | 1023.3 |
| 20260510132504 | 51 | 326 | 0.0 | 1.0 | 0.00 | 0.00 | 0.00 | 47 | 1023.2 |
| 20260510132002 | 50 | 330 | 0.0 | 1.0 | 0.00 | 0.00 | 0.00 | 46 | 1023.1 |
| 20260510131502 | 50 | 330 | 0.0 | 1.0 | 0.00 | 0.00 | 0.00 | 47 | 1023.1 |
| 20260510131002 | 50 | 330 | 0.0 | 1.0 | 0.00 | 0.00 | 0.00 | 47 | 1022.9 |
| 20260510130502 | 50 | 330 | 0.0 | 0.0 | 0.00 | 0.00 | 0.00 | 48 | 1022.8 |
| 20260510130004 | 50 | 330 | 0.0 | 0.0 | 0.00 | 0.00 | 0.00 | 47 | 1022.7 |
| 20260510125503 | 50 | 330 | 0.0 | 1.0 | 0.00 | 0.00 | 0.00 | 46 | 1022.5 |
| 20260510125003 | 50 | 330 | 0.0 | 1.0 | 0.00 | 0.00 | 0.00 | 46 | 1022.4 |
| 20260510124503 | 50 | 330 | 0.0 | 1.0 | 0.00 | 0.00 | 0.00 | 46 | 1022.3 |
| 20260510124002 | 50 | 330 | 0.0 | 1.0 | 0.00 | 0.00 | 0.00 | 46 | 1022.4 |
| 20260510123502 | 50 | 35 | 0.0 | 1.0 | 0.00 | 0.00 | 0.00 | 47 | 1022.3 |
| 20260510123007 | 50 | 89 | 0.0 | 1.0 | 0.00 | 0.00 | 0.00 | 46 | 1022.2 |
| 20260510122502 | 51 | 89 | 0.0 | 0.0 | 0.00 | 0.00 | 0.00 | 45 | 1022.3 |
| 20260510122002 | 52 | 89 | 0.0 | 0.0 | 0.00 | 0.00 | 0.00 | 44 | 1022.3 |
| 20260510121504 | 52 | 89 | 0.0 | 0.0 | 0.00 | 0.00 | 0.00 | 44 | 1022.2 |
| 20260510121003 | 53 | 89 | 0.0 | 0.0 | 0.00 | 0.00 | 0.00 | 43 | 1022.2 |
| 20260510120504 | 53 | 89 | 0.0 | 1.0 | 0.00 | 0.00 | 0.00 | 42 | 1022.3 |
| 20260510120005 | 54 | 89 | 0.0 | 1.0 | 0.00 | 0.00 | 0.00 | 42 | 1022.2 |
| 20260510115502 | 54 | 89 | 0.0 | 2.0 | 0.00 | 0.00 | 0.00 | 41 | 1022.2 |
| 20260510115002 | 54 | 89 | 0.0 | 2.0 | 0.00 | 0.00 | 0.00 | 40 | 1022.1 |
| 20260510114504 | 55 | 89 | 0.0 | 2.0 | 0.00 | 0.00 | 0.00 | 40 | 1022.2 |
| 20260510114002 | 55 | 113 | 0.0 | 2.0 | 0.00 | 0.00 | 0.00 | 39 | 1022.1 |
| 20260510113502 | 55 | 88 | 0.0 | 2.0 | 0.00 | 0.00 | 0.00 | 39 | 1022.1 |
| 20260510113004 | 55 | 120 | 0.0 | 3.0 | 0.00 | 0.00 | 0.00 | 39 | 1022.1 |
| 20260510112505 | 56 | 86 | 1.0 | 3.0 | 0.00 | 0.00 | 0.00 | 39 | 1022.3 |
| 20260510112003 | 56 | 65 | 1.0 | 3.0 | 0.00 | 0.00 | 0.00 | 38 | 1022.4 |
| 20260510111504 | 56 | 283 | 0.0 | 2.0 | 0.00 | 0.00 | 0.00 | 37 | 1022.6 |
| 20260510111004 | 56 | 335 | 1.0 | 7.0 | 0.00 | 0.00 | 0.00 | 37 | 1022.7 |
| 20260510110503 | 56 | 226 | 2.0 | 7.0 | 0.00 | 0.00 | 0.00 | 38 | 1022.7 |
| 20260510110013 | 56 | 350 | 1.0 | 5.0 | 0.00 | 0.00 | 0.00 | 36 | 1022.7 |
| 20260510105503 | 53 | 352 | 2.0 | 5.0 | 0.00 | 0.00 | 0.00 | 38 | 1022.3 |
| 20260510105003 | 51 | 74 | 0.0 | 1.0 | 0.00 | 0.00 | 0.00 | 36 | 1022.2 |
| 20260510104505 | 51 | 75 | 0.0 | 1.0 | 0.00 | 0.00 | 0.00 | 36 | 1022.1 |
| 20260510104002 | 51 | 75 | 0.0 | 1.0 | 0.00 | 0.00 | 0.00 | 35 | 1022.1 |
| 20260510103502 | 51 | 75 | 0.0 | 1.0 | 0.00 | 0.00 | 0.00 | 35 | 1022.1 |
| 20260510103004 | 51 | 75 | 0.0 | 1.0 | 0.00 | 0.00 | 0.00 | 35 | 1022.0 |
| 20260510102505 | 51 | 75 | 0.0 | 1.0 | 0.00 | 0.00 | 0.00 | 34 | 1021.9 |
| 20260510102002 | 50 | 89 | 0.0 | 2.0 | 0.00 | 0.00 | 0.00 | 34 | 1021.6 |
| 20260510101505 | 50 | 89 | 0.0 | 3.0 | 0.00 | 0.00 | 0.00 | 34 | 1021.3 |
| 20260510101003 | 50 | 78 | 1.0 | 3.0 | 0.00 | 0.00 | 0.00 | 35 | 1021.3 |
| 20260510100503 | 50 | 123 | 0.0 | 1.0 | 0.00 | 0.00 | 0.00 | 34 | 1021.3 |
| 20260510100006 | 50 | 25 | 0.0 | 0.0 | 0.00 | 0.00 | 0.00 | 35 | 1021.5 |
| 20260510095505 | 50 | 25 | 0.0 | 1.0 | 0.00 | 0.00 | 0.00 | 34 | 1021.6 |
| 20260510095003 | 51 | 25 | 0.0 | 1.0 | 0.00 | 0.00 | 0.00 | 35 | 1021.5 |
| 20260510094505 | 50 | 25 | 0.0 | 1.0 | 0.00 | 0.00 | 0.00 | 34 | 1021.2 |
| 20260510094003 | 50 | 32 | 0.0 | 0.0 | 0.00 | 0.00 | 0.00 | 35 | 1020.9 |
| 20260510093503 | 50 | 32 | 0.0 | 1.0 | 0.00 | 0.00 | 0.00 | 35 | 1020.8 |
| 20260510093006 | 50 | 32 | 0.0 | 1.0 | 0.00 | 0.00 | 0.00 | 35 | 1020.6 |
| 20260510092503 | 51 | 299 | 0.0 | 1.0 | 0.00 | 0.00 | 0.00 | 34 | 1020.3 |
| 20260510092003 | 50 | 299 | 0.0 | 1.0 | 0.00 | 0.00 | 0.00 | 34 | 1020.0 |
| 20260510091504 | 50 | 84 | 0.0 | 1.0 | 0.00 | 0.00 | 0.00 | 35 | 1019.9 |
| 20260510091002 | 50 | 84 | 0.0 | 3.0 | 0.00 | 0.00 | 0.00 | 34 | 1019.8 |
| 20260510090503 | 51 | 65 | 0.0 | 3.0 | 0.00 | 0.00 | 0.00 | 33 | 1019.7 |
| 20260510090008 | 50 | 330 | 0.0 | 1.0 | 0.00 | 0.00 | 0.00 | 34 | 1019.7 |
| 20260510085502 | 50 | 328 | 0.0 | 1.0 | 0.00 | 0.00 | 0.00 | 34 | 1019.7 |
| 20260510085003 | 50 | 327 | 0.0 | 1.0 | 0.00 | 0.00 | 0.00 | 33 | 1019.6 |
| 20260510084506 | 50 | 61 | 0.0 | 0.0 | 0.00 | 0.00 | 0.00 | 33 | 1019.5 |
| 20260510084002 | 51 | 61 | 0.0 | 1.0 | 0.00 | 0.00 | 0.00 | 33 | 1019.5 |
| 20260510083505 | 51 | 61 | 0.0 | 1.0 | 0.00 | 0.00 | 0.00 | 32 | 1019.5 |
| 20260510083009 | 51 | 331 | 0.0 | 1.0 | 0.00 | 0.00 | 0.00 | 32 | 1019.5 |
| 20260510082503 | 51 | 330 | 0.0 | 1.0 | 0.00 | 0.00 | 0.00 | 31 | 1019.4 |
| 20260510082003 | 51 | 309 | 0.0 | 2.0 | 0.00 | 0.00 | 0.00 | 31 | 1019.3 |
| 20260510081507 | 51 | 326 | 0.0 | 2.0 | 0.00 | 0.00 | 0.00 | 31 | 1019.3 |
| 20260510081003 | 51 | 338 | 0.0 | 2.0 | 0.00 | 0.00 | 0.00 | 31 | 1019.3 |
| 20260510080504 | 51 | 325 | 0.0 | 2.0 | 0.00 | 0.00 | 0.00 | 31 | 1019.4 |
| 20260510080006 | 51 | 338 | 0.0 | 1.0 | 0.00 | 0.00 | 0.00 | 31 | 1019.4 |
| 20260510075504 | 51 | 65 | 0.0 | 2.0 | 0.00 | 0.00 | 0.00 | 31 | 1019.2 |
| 20260510075007 | 51 | 334 | 0.0 | 2.0 | 0.00 | 0.00 | 0.00 | 31 | 1019.2 |
| 20260510074508 | 51 | 4 | 0.0 | 1.0 | 0.00 | 0.00 | 0.00 | 31 | 1019.2 |
| 20260510074002 | 51 | 12 | 0.0 | 1.0 | 0.00 | 0.00 | 0.00 | 31 | 1019.2 |
| 20260510073505 | 51 | 27 | 0.0 | 1.0 | 0.00 | 0.00 | 0.00 | 30 | 1019.2 |
| 20260510073009 | 51 | 51 | 0.0 | 1.0 | 0.00 | 0.00 | 0.00 | 30 | 1019.2 |
| 20260510072504 | 51 | 64 | 0.0 | 1.0 | 0.00 | 0.00 | 0.00 | 30 | 1019.2 |
| 20260510072004 | 51 | 118 | 0.0 | 0.0 | 0.00 | 0.00 | 0.00 | 29 | 1019.1 |
| 20260510071507 | 52 | 118 | 0.0 | 1.0 | 0.00 | 0.00 | 0.00 | 29 | 1019.1 |
| 20260510071004 | 53 | 118 | 0.0 | 1.0 | 0.00 | 0.00 | 0.00 | 28 | 1019.1 |
| 20260510070504 | 53 | 120 | 0.0 | 1.0 | 0.00 | 0.00 | 0.00 | 28 | 1019.2 |
| 20260510070010 | 53 | 120 | 0.0 | 1.0 | 0.00 | 0.00 | 0.00 | 28 | 1019.1 |
| 20260510065503 | 53 | 122 | 0.0 | 1.0 | 0.00 | 0.00 | 0.00 | 27 | 1019.0 |
| 20260510065004 | 54 | 122 | 0.0 | 2.0 | 0.00 | 0.00 | 0.00 | 27 | 1019.1 |
| 20260510064506 | 54 | 140 | 0.0 | 2.0 | 0.00 | 0.00 | 0.00 | 27 | 1019.0 |
| 20260510064003 | 53 | 336 | 0.0 | 1.0 | 0.00 | 0.00 | 0.00 | 27 | 1019.2 |
| 20260510063505 | 53 | 300 | 0.0 | 1.0 | 0.00 | 0.00 | 0.00 | 27 | 1019.2 |
| 20260510063013 | 52 | 138 | 0.0 | 1.0 | 0.00 | 0.00 | 0.00 | 26 | 1019.1 |
| 20260510062506 | 52 | 32 | 0.0 | 1.0 | 0.00 | 0.00 | 0.00 | 27 | 1019.1 |
| 20260510062005 | 52 | 32 | 0.0 | 2.0 | 0.00 | 0.00 | 0.00 | 27 | 1019.0 |
| 20260510061512 | 52 | 32 | 0.0 | 2.0 | 0.00 | 0.00 | 0.00 | 27 | 1019.0 |
| 20260510061005 | 52 | 139 | 0.0 | 1.0 | 0.00 | 0.00 | 0.00 | 26 | 1018.8 |
| 20260510060505 | 52 | 34 | 0.0 | 1.0 | 0.00 | 0.00 | 0.00 | 26 | 1018.9 |
| 20260510060013 | 53 | 35 | 0.0 | 1.0 | 0.00 | 0.00 | 0.00 | 26 | 1018.9 |
| 20260510055505 | 53 | 35 | 0.0 | 2.0 | 0.00 | 0.00 | 0.00 | 26 | 1018.8 |
| 20260510055003 | 52 | 36 | 0.0 | 2.0 | 0.00 | 0.00 | 0.00 | 26 | 1018.8 |
| 20260510054512 | 53 | 123 | 0.0 | 2.0 | 0.00 | 0.00 | 0.00 | 25 | 1018.6 |
| 20260510054005 | 53 | 302 | 0.0 | 1.0 | 0.00 | 0.00 | 0.00 | 26 | 1018.5 |
| 20260510053503 | 53 | 305 | 0.0 | 1.0 | 0.00 | 0.00 | 0.00 | 26 | 1018.5 |
| 20260510053016 | 53 | 302 | 0.0 | 1.0 | 0.00 | 0.00 | 0.00 | 26 | 1018.5 |
| 20260510052503 | 53 | 302 | 0.0 | 1.0 | 0.00 | 0.00 | 0.00 | 25 | 1018.4 |
| 20260510052004 | 54 | 300 | 0.0 | 1.0 | 0.00 | 0.00 | 0.00 | 25 | 1018.4 |
| 20260510051512 | 54 | 39 | 0.0 | 1.0 | 0.00 | 0.00 | 0.00 | 24 | 1018.3 |
| 20260510051005 | 55 | 39 | 0.0 | 1.0 | 0.00 | 0.00 | 0.00 | 24 | 1018.4 |
| 20260510050504 | 55 | 9 | 0.0 | 1.0 | 0.00 | 0.00 | 0.00 | 24 | 1018.6 |
| 20260510050012 | 56 | 9 | 0.0 | 1.0 | 0.00 | 0.00 | 0.00 | 23 | 1018.5 |
| 20260510045505 | 56 | 9 | 0.0 | 0.0 | 0.00 | 0.00 | 0.00 | 23 | 1018.5 |
| 20260510045005 | 56 | 9 | 0.0 | 0.0 | 0.00 | 0.00 | 0.00 | 22 | 1018.6 |
| 20260510044514 | 57 | 9 | 0.0 | 0.0 | 0.00 | 0.00 | 0.00 | 21 | 1018.6 |
| 20260510044002 | 58 | 9 | 0.0 | 0.0 | 0.00 | 0.00 | 0.00 | 20 | 1018.7 |
| 20260510043504 | 58 | 9 | 0.0 | 1.0 | 0.00 | 0.00 | 0.00 | 19 | 1018.6 |
| 20260510043008 | 59 | 359 | 0.0 | 1.0 | 0.00 | 0.00 | 0.00 | 19 | 1018.6 |
| 20260510042503 | 60 | 359 | 0.0 | 1.0 | 0.00 | 0.00 | 0.00 | 19 | 1018.6 |
| 20260510042004 | 60 | 354 | 0.0 | 1.0 | 0.00 | 0.00 | 0.00 | 18 | 1018.5 |
| 20260510041507 | 61 | 320 | 0.0 | 1.0 | 0.00 | 0.00 | 0.00 | 17 | 1018.5 |
| 20260510041008 | 61 | 323 | 0.0 | 1.0 | 0.00 | 0.00 | 0.00 | 16 | 1018.4 |
| 20260510040504 | 62 | 323 | 0.0 | 0.0 | 0.00 | 0.00 | 0.00 | 15 | 1018.5 |
| 20260510040015 | 63 | 323 | 0.0 | 1.0 | 0.00 | 0.00 | 0.00 | 15 | 1018.4 |
| 20260510035504 | 64 | 323 | 0.0 | 1.0 | 0.00 | 0.00 | 0.00 | 15 | 1018.3 |
| 20260510035003 | 65 | 340 | 0.0 | 3.0 | 0.00 | 0.00 | 0.00 | 14 | 1018.3 |
| 20260510034504 | 65 | 352 | 0.0 | 3.0 | 0.00 | 0.00 | 0.00 | 14 | 1018.2 |
| 20260510034003 | 65 | 320 | 0.0 | 2.0 | 0.00 | 0.00 | 0.00 | 13 | 1018.1 |
| 20260510033503 | 66 | 333 | 0.0 | 2.0 | 0.00 | 0.00 | 0.00 | 13 | 1018.0 |
| 20260510033003 | 66 | 352 | 0.0 | 2.0 | 0.00 | 0.00 | 0.00 | 13 | 1017.9 |
| 20260510032504 | 67 | 326 | 0.0 | 2.0 | 0.00 | 0.00 | 0.00 | 13 | 1017.8 |
| 20260510032004 | 67 | 321 | 0.0 | 2.0 | 0.00 | 0.00 | 0.00 | 13 | 1017.8 |
| 20260510031508 | 67 | 352 | 0.0 | 2.0 | 0.00 | 0.00 | 0.00 | 13 | 1017.8 |
| 20260510031004 | 67 | 332 | 0.0 | 4.0 | 0.00 | 0.00 | 0.00 | 13 | 1017.7 |
| 20260510030506 | 66 | 330 | 0.0 | 4.0 | 0.00 | 0.00 | 0.00 | 14 | 1017.8 |
| 20260510030010 | 66 | 26 | 0.0 | 1.0 | 0.00 | 0.00 | 0.00 | 15 | 1017.6 |
| 20260510025506 | 67 | 26 | 0.0 | 1.0 | 0.00 | 0.00 | 0.00 | 14 | 1017.5 |
| 20260510025004 | 67 | 26 | 0.0 | 1.0 | 0.00 | 0.00 | 0.00 | 14 | 1017.3 |
| 20260510024519 | 67 | 26 | 0.0 | 1.0 | 0.00 | 0.00 | 0.00 | 14 | 1017.3 |
| 20260510024006 | 68 | 8 | 0.0 | 2.0 | 0.00 | 0.00 | 0.00 | 14 | 1017.3 |
| 20260510023503 | 68 | 316 | 0.0 | 2.0 | 0.00 | 0.00 | 0.00 | 13 | 1017.1 |
| 20260510023003 | 68 | 282 | 0.0 | 3.0 | 0.00 | 0.00 | 0.00 | 13 | 1017.0 |
| 20260510022503 | 68 | 303 | 0.0 | 3.0 | 0.00 | 0.00 | 0.00 | 13 | 1017.0 |
| 20260510022003 | 68 | 347 | 1.0 | 3.0 | 0.00 | 0.00 | 0.00 | 13 | 1017.0 |
| 20260510021503 | 69 | 347 | 0.0 | 3.0 | 0.00 | 0.00 | 0.00 | 13 | 1016.9 |
| 20260510021004 | 69 | 340 | 1.0 | 3.0 | 0.00 | 0.00 | 0.00 | 13 | 1016.8 |
| 20260510020504 | 69 | 32 | 0.0 | 2.0 | 0.00 | 0.00 | 0.00 | 12 | 1016.7 |
| 20260510020008 | 70 | 333 | 0.0 | 5.0 | 0.00 | 0.00 | 0.00 | 12 | 1016.8 |
| 20260510015505 | 70 | 285 | 2.0 | 6.0 | 0.00 | 0.00 | 0.00 | 12 | 1016.7 |
| 20260510015005 | 70 | 289 | 2.0 | 6.0 | 0.00 | 0.00 | 0.00 | 12 | 1016.7 |
| 20260510014511 | 70 | 318 | 1.0 | 4.0 | 0.00 | 0.00 | 0.00 | 12 | 1016.6 |
| 20260510014006 | 70 | 325 | 1.0 | 4.0 | 0.00 | 0.00 | 0.00 | 12 | 1016.7 |
| 20260510013508 | 70 | 291 | 0.0 | 4.0 | 0.00 | 0.00 | 0.00 | 12 | 1016.5 |
| 20260510013017 | 70 | 255 | 1.0 | 5.0 | 0.00 | 0.00 | 0.00 | 12 | 1016.5 |
| 20260510012507 | 71 | 13 | 2.0 | 5.0 | 0.00 | 0.00 | 0.00 | 12 | 1016.5 |
| 20260510012010 | 71 | 77 | 1.0 | 5.0 | 0.00 | 0.00 | 0.00 | 12 | 1016.4 |
| 20260510011504 | 71 | 303 | 1.0 | 5.0 | 0.00 | 0.00 | 0.00 | 12 | 1016.3 |
| 20260510011003 | 71 | 287 | 0.0 | 5.0 | 0.00 | 0.00 | 0.00 | 12 | 1016.2 |
| 20260510010503 | 72 | 305 | 1.0 | 7.0 | 0.00 | 0.00 | 0.00 | 11 | 1016.2 |
| 20260510010006 | 72 | 302 | 2.0 | 7.0 | 0.00 | 0.00 | 0.00 | 11 | 1016.2 |
| 20260510005503 | 72 | 360 | 2.0 | 5.0 | 0.00 | 0.00 | 0.00 | 12 | 1016.3 |
| 20260510005004 | 72 | 260 | 2.0 | 8.0 | 0.00 | 0.00 | 0.00 | 11 | 1016.1 |
| 20260510004508 | 73 | 317 | 1.0 | 8.0 | 0.00 | 0.00 | 0.00 | 11 | 1016.0 |
| 20260510004003 | 73 | 11 | 1.0 | 6.0 | 0.00 | 0.00 | 0.00 | 11 | 1016.2 |
| 20260510003508 | 73 | 340 | 1.0 | 5.0 | 0.00 | 0.00 | 0.00 | 11 | 1016.1 |
| 20260510003023 | 73 | 296 | 2.0 | 5.0 | 0.00 | 0.00 | 0.00 | 11 | 1015.9 |
| 20260510002506 | 73 | 240 | 1.0 | 6.0 | 0.00 | 0.00 | 0.00 | 11 | 1015.8 |
| 20260510002010 | 74 | 1 | 2.0 | 6.0 | 0.00 | 0.00 | 0.00 | 11 | 1016.0 |
| 20260510001521 | 74 | 39 | 2.0 | 6.0 | 0.00 | 0.00 | 0.00 | 11 | 1015.8 |
| 20260510001007 | 74 | 316 | 2.0 | 5.0 | 0.00 | 0.00 | 0.00 | 11 | 1015.8 |
| 20260510000506 | 74 | 289 | 2.0 | 7.0 | 0.00 | 0.00 | 0.00 | 11 | 1015.7 |
| 20260510000004 | 75 | 341 | 2.0 | 7.0 | 0.00 | 0.00 | 0.00 | 11 | 1015.7 |
| 20260509235502 | 75 | 304 | 2.0 | 5.0 | 0.00 | 0.00 | 0.00 | 11 | 1015.7 |
| 20260509235003 | 74 | 330 | 1.0 | 5.0 | 0.00 | 0.00 | 0.00 | 11 | 1015.6 |
| 20260509234512 | 74 | 278 | 1.0 | 5.0 | 0.00 | 0.00 | 0.00 | 11 | 1015.7 |
| 20260509234003 | 74 | 91 | 1.0 | 6.0 | 0.00 | 0.00 | 0.00 | 11 | 1015.7 |
| 20260509233504 | 75 | 321 | 2.0 | 6.0 | 0.00 | 0.00 | 0.00 | 11 | 1015.7 |
| 20260509233021 | 76 | 3 | 2.0 | 6.0 | 0.00 | 0.00 | 0.00 | 11 | 1015.9 |
| 20260509232512 | 76 | 318 | 2.0 | 7.0 | 0.00 | 0.00 | 0.00 | 11 | 1015.7 |
| 20260509232006 | 75 | 283 | 2.0 | 7.0 | 0.00 | 0.00 | 0.00 | 11 | 1015.7 |
| 20260509231516 | 75 | 345 | 0.0 | 5.0 | 0.00 | 0.00 | 0.00 | 11 | 1015.7 |
| 20260509231007 | 75 | 276 | 1.0 | 7.0 | 0.00 | 0.00 | 0.00 | 11 | 1015.7 |
| 20260509230508 | 76 | 277 | 3.0 | 7.0 | 0.00 | 0.00 | 0.00 | 11 | 1015.7 |
| 20260509230028 | 76 | 345 | 2.0 | 7.0 | 0.00 | 0.00 | 0.00 | 11 | 1015.9 |
| 20260509225508 | 76 | 215 | 2.0 | 6.0 | 0.00 | 0.00 | 0.00 | 10 | 1016.2 |
| 20260509225011 | 76 | 214 | 2.0 | 6.0 | 0.00 | 0.00 | 0.00 | 11 | 1016.1 |
| 20260509224531 | 77 | 295 | 2.0 | 6.0 | 0.00 | 0.00 | 0.00 | 10 | 1016.2 |
| 20260509224005 | 78 | 75 | 1.0 | 7.0 | 0.00 | 0.00 | 0.00 | 11 | 1015.7 |
| 20260509223504 | 77 | 193 | 1.0 | 7.0 | 0.00 | 0.00 | 0.00 | 11 | 1015.9 |
| 20260509223007 | 77 | 308 | 2.0 | 7.0 | 0.00 | 0.00 | 0.00 | 12 | 1016.2 |
| 20260509222504 | 75 | 268 | 2.0 | 5.0 | 0.00 | 0.00 | 0.00 | 12 | 1016.1 |
| 20260509222005 | 75 | 72 | 1.0 | 4.0 | 0.00 | 0.00 | 0.00 | 12 | 1016.2 |
| 20260509221517 | 75 | 32 | 1.0 | 6.0 | 0.00 | 0.00 | 0.00 | 12 | 1016.1 |
| 20260509221011 | 75 | 135 | 1.0 | 6.0 | 0.00 | 0.00 | 0.00 | 12 | 1016.1 |
| 20260509220510 | 76 | 101 | 1.0 | 5.0 | 0.00 | 0.00 | 0.00 | 12 | 1016.2 |
| 20260509220021 | 77 | 229 | 2.0 | 4.0 | 0.00 | 0.00 | 0.00 | 11 | 1016.2 |
| 20260509215507 | 77 | 289 | 1.0 | 10.0 | 0.00 | 0.00 | 0.00 | 11 | 1016.4 |
| 20260509215012 | 77 | 250 | 1.0 | 10.0 | 0.00 | 0.00 | 0.00 | 12 | 1016.5 |
| 20260509214525 | 78 | 263 | 2.0 | 10.0 | 0.00 | 0.00 | 0.00 | 11 | 1016.5 |
| 20260509214009 | 78 | 254 | 2.0 | 5.0 | 0.00 | 0.00 | 0.00 | 11 | 1016.7 |
| 20260509213508 | 79 | 334 | 2.0 | 6.0 | 0.00 | 0.00 | 0.00 | 11 | 1016.6 |
| 20260509213026 | 78 | 211 | 2.0 | 7.0 | 0.00 | 0.00 | 0.00 | 11 | 1016.7 |
| 20260509212501 | 77 | 312 | 2.0 | 7.0 | 0.00 | 0.00 | 0.00 | 12 | 1016.9 |
| 20260509212002 | 77 | 326 | 2.0 | 5.0 | 0.00 | 0.00 | 0.00 | 12 | 1016.7 |
| 20260509211512 | 77 | 266 | 1.0 | 6.0 | 0.00 | 0.00 | 0.00 | 12 | 1017.1 |
| 20260509211006 | 78 | 330 | 2.0 | 9.0 | 0.00 | 0.00 | 0.00 | 11 | 1017.2 |
| 20260509210511 | 80 | 290 | 4.0 | 9.0 | 0.00 | 0.00 | 0.00 | 10 | 1017.1 |
| 20260509210018 | 82 | 4 | 2.0 | 4.0 | 0.00 | 0.00 | 0.00 | 10 | 1017.1 |
| 20260509205508 | 81 | 219 | 2.0 | 10.0 | 0.00 | 0.00 | 0.00 | 11 | 1017.3 |
| 20260509205007 | 81 | 235 | 1.0 | 10.0 | 0.00 | 0.00 | 0.00 | 11 | 1017.3 |
| 20260509204523 | 82 | 10 | 1.0 | 5.0 | 0.00 | 0.00 | 0.00 | 10 | 1017.3 |
| 20260509204009 | 82 | 300 | 2.0 | 8.0 | 0.00 | 0.00 | 0.00 | 11 | 1017.3 |
| 20260509203508 | 81 | 255 | 1.0 | 8.0 | 0.00 | 0.00 | 0.00 | 11 | 1017.5 |
| 20260509203029 | 81 | 290 | 1.0 | 6.0 | 0.00 | 0.00 | 0.00 | 11 | 1017.5 |
| 20260509202510 | 80 | 22 | 2.0 | 6.0 | 0.00 | 0.00 | 0.00 | 11 | 1017.6 |
| 20260509202013 | 79 | 126 | 2.0 | 7.0 | 0.00 | 0.00 | 0.00 | 12 | 1017.7 |
| 20260509201525 | 78 | 284 | 2.0 | 7.0 | 0.00 | 0.00 | 0.00 | 12 | 1017.9 |
| 20260509201011 | 79 | 26 | 1.0 | 7.0 | 0.00 | 0.00 | 0.00 | 12 | 1018.0 |
| 20260509200506 | 79 | 149 | 2.0 | 10.0 | 0.00 | 0.00 | 0.00 | 12 | 1017.9 |
| 20260509200012 | 79 | 295 | 2.0 | 10.0 | 0.00 | 0.00 | 0.00 | 12 | 1017.9 |
| 20260509195504 | 80 | 251 | 2.0 | 11.0 | 0.00 | 0.00 | 0.00 | 11 | 1017.8 |
| 20260509195003 | 81 | 302 | 4.0 | 11.0 | 0.00 | 0.00 | 0.00 | 11 | 1018.0 |
| 20260509194523 | 81 | 30 | 3.0 | 10.0 | 0.00 | 0.00 | 0.00 | 11 | 1018.0 |
| 20260509194005 | 80 | 62 | 3.0 | 10.0 | 0.00 | 0.00 | 0.00 | 12 | 1018.0 |
| 20260509193503 | 81 | 60 | 2.0 | 9.0 | 0.00 | 0.00 | 0.00 | 12 | 1018.0 |
| 20260509193004 | 82 | 275 | 4.0 | 9.0 | 0.00 | 0.00 | 0.00 | 11 | 1018.1 |